Time,TemperatureF,DewpointF,PressureIn,WindDirection,WindDirectionDegrees,WindSpeedMPH,WindSpeedGustMPH,Humidity,HourlyPrecipIn,Conditions,Clouds,dailyrainin,SoftwareType,DateUTC
2013-04-10 00:00:00,61.7,54.8,29.96,NW,323,0.0,15.0,78,0.00,,,0.00,Wunderground v.1.15,2013-04-10 04:00:00,
2013-04-10 00:05:00,61.4,54.5,29.95,NW,323,0.0,15.0,78,0.00,,,0.00,Wunderground v.1.15,2013-04-10 04:05:00,
2013-04-10 00:10:00,61.2,54.3,29.95,NW,323,0.0,15.0,78,0.00,,,0.00,Wunderground v.1.15,2013-04-10 04:10:00,
2013-04-10 00:16:00,60.9,54.3,29.96,NW,323,0.0,15.0,79,0.00,,,0.00,Wunderground v.1.15,2013-04-10 04:16:00,
2013-04-10 00:21:00,60.8,54.2,29.96,NW,323,0.0,15.0,79,0.00,,,0.00,Wunderground v.1.15,2013-04-10 04:21:00,
2013-04-10 00:26:00,60.6,54.4,29.96,NW,323,0.0,15.0,80,0.00,,,0.00,Wunderground v.1.15,2013-04-10 04:26:00,
2013-04-10 00:31:00,60.4,54.2,29.96,NW,323,0.0,15.0,80,0.00,,,0.00,Wunderground v.1.15,2013-04-10 04:31:00,
2013-04-10 00:40:00,60.1,54.2,29.96,NW,323,0.0,15.0,81,0.00,,,0.00,Wunderground v.1.15,2013-04-10 04:40:00,
2013-04-10 00:45:00,60.0,54.2,29.96,NW,323,0.0,15.0,81,0.00,,,0.00,Wunderground v.1.15,2013-04-10 04:45:00,
2013-04-10 00:51:00,59.8,54.0,29.96,NW,323,0.0,15.0,81,0.00,,,0.00,Wunderground v.1.15,2013-04-10 04:51:00,
2013-04-10 00:56:00,59.7,53.9,29.96,NW,323,0.0,15.0,81,0.00,,,0.00,Wunderground v.1.15,2013-04-10 04:56:00,
2013-04-10 01:01:00,59.4,53.6,29.96,NW,323,0.0,15.0,81,0.00,,,0.00,Wunderground v.1.15,2013-04-10 05:01:00,
2013-04-10 01:06:00,59.2,53.7,29.96,NW,323,0.0,15.0,82,0.00,,,0.00,Wunderground v.1.15,2013-04-10 05:06:00,
2013-04-10 01:11:00,59.0,53.5,29.96,NW,323,0.0,15.0,82,0.00,,,0.00,Wunderground v.1.15,2013-04-10 05:11:00,
2013-04-10 01:16:00,58.9,53.7,29.97,NW,323,0.0,15.0,83,0.00,,,0.00,Wunderground v.1.15,2013-04-10 05:16:00,
2013-04-10 01:26:00,58.8,53.6,29.96,NW,323,0.0,15.0,83,0.00,,,0.00,Wunderground v.1.15,2013-04-10 05:26:00,
2013-04-10 01:31:00,58.8,53.6,29.96,NW,323,0.0,15.0,83,0.00,,,0.00,Wunderground v.1.15,2013-04-10 05:31:00,
2013-04-10 01:36:00,58.6,53.5,29.96,NW,323,0.0,15.0,83,0.00,,,0.00,Wunderground v.1.15,2013-04-10 05:36:00,
2013-04-10 01:41:00,58.5,53.4,29.96,NW,323,0.0,15.0,83,0.00,,,0.00,Wunderground v.1.15,2013-04-10 05:41:00,
2013-04-10 01:46:00,58.3,53.2,29.96,NW,323,0.0,15.0,83,0.00,,,0.00,Wunderground v.1.15,2013-04-10 05:46:00,
2013-04-10 01:56:00,57.9,53.1,29.96,NW,323,0.0,15.0,84,0.00,,,0.00,Wunderground v.1.15,2013-04-10 05:56:00,
2013-04-10 02:01:00,58.3,53.8,29.96,NW,323,0.0,15.0,85,0.00,,,0.00,Wunderground v.1.15,2013-04-10 06:01:00,
2013-04-10 02:06:00,58.3,53.2,29.96,NW,323,0.0,15.0,83,0.00,,,0.00,Wunderground v.1.15,2013-04-10 06:06:00,
2013-04-10 02:11:00,58.0,53.2,29.95,NW,323,0.0,15.0,84,0.00,,,0.00,Wunderground v.1.15,2013-04-10 06:11:00,
2013-04-10 02:16:00,57.8,53.0,29.95,NW,323,0.0,15.0,84,0.00,,,0.00,Wunderground v.1.15,2013-04-10 06:16:00,
2013-04-10 02:21:00,57.6,52.8,29.95,NW,323,0.0,15.0,84,0.00,,,0.00,Wunderground v.1.15,2013-04-10 06:21:00,
2013-04-10 02:31:00,57.3,52.5,29.95,NW,323,0.0,15.0,84,0.00,,,0.00,Wunderground v.1.15,2013-04-10 06:31:00,
2013-04-10 02:35:00,57.0,52.5,29.95,NW,323,0.0,15.0,85,0.00,,,0.00,Wunderground v.1.15,2013-04-10 06:35:00,
2013-04-10 02:40:00,56.8,52.7,29.95,NW,323,0.0,15.0,86,0.00,,,0.00,Wunderground v.1.15,2013-04-10 06:40:00,
2013-04-10 02:45:00,56.7,52.6,29.95,NW,323,0.0,15.0,86,0.00,,,0.00,Wunderground v.1.15,2013-04-10 06:45:00,
2013-04-10 02:51:00,56.5,52.4,29.95,NW,323,0.0,15.0,86,0.00,,,0.00,Wunderground v.1.15,2013-04-10 06:51:00,
2013-04-10 03:01:00,56.3,52.5,29.94,NW,323,0.0,15.0,87,0.00,,,0.00,Wunderground v.1.15,2013-04-10 07:01:00,
2013-04-10 03:06:00,56.2,52.4,29.94,NW,323,0.0,15.0,87,0.00,,,0.00,Wunderground v.1.15,2013-04-10 07:06:00,
2013-04-10 03:11:00,56.1,52.3,29.94,NW,323,0.0,15.0,87,0.00,,,0.00,Wunderground v.1.15,2013-04-10 07:11:00,
2013-04-10 03:16:00,56.0,52.2,29.94,NW,323,0.0,15.0,87,0.00,,,0.00,Wunderground v.1.15,2013-04-10 07:16:00,
2013-04-10 03:21:00,55.8,52.0,29.94,NW,323,0.0,15.0,87,0.00,,,0.00,Wunderground v.1.15,2013-04-10 07:21:00,
2013-04-10 03:26:00,55.7,51.9,29.94,NW,323,0.0,15.0,87,0.00,,,0.00,Wunderground v.1.15,2013-04-10 07:26:00,
2013-04-10 03:36:00,55.4,51.9,29.94,NW,323,0.0,15.0,88,0.00,,,0.00,Wunderground v.1.15,2013-04-10 07:36:00,
2013-04-10 03:41:00,55.3,51.8,29.94,NW,323,0.0,15.0,88,0.00,,,0.00,Wunderground v.1.15,2013-04-10 07:41:00,
2013-04-10 03:46:00,55.2,52.0,29.94,NW,323,0.0,15.0,89,0.00,,,0.00,Wunderground v.1.15,2013-04-10 07:46:00,
2013-04-10 03:51:00,55.1,51.6,29.93,NW,323,0.0,15.0,88,0.00,,,0.00,Wunderground v.1.15,2013-04-10 07:51:00,
2013-04-10 03:56:00,55.0,51.5,29.94,NW,323,0.0,15.0,88,0.00,,,0.00,Wunderground v.1.15,2013-04-10 07:56:00,
2013-04-10 04:05:00,54.8,51.6,29.94,NW,323,0.0,15.0,89,0.00,,,0.00,Wunderground v.1.15,2013-04-10 08:05:00,
2013-04-10 04:10:00,54.6,51.4,29.94,NW,323,0.0,15.0,89,0.00,,,0.00,Wunderground v.1.15,2013-04-10 08:10:00,
2013-04-10 04:16:00,54.5,51.3,29.94,NW,323,0.0,15.0,89,0.00,,,0.00,Wunderground v.1.15,2013-04-10 08:16:00,
2013-04-10 04:21:00,54.3,51.1,29.94,NW,323,0.0,15.0,89,0.00,,,0.00,Wunderground v.1.15,2013-04-10 08:21:00,
2013-04-10 04:26:00,54.1,50.9,29.94,NW,323,0.0,15.0,89,0.00,,,0.00,Wunderground v.1.15,2013-04-10 08:26:00,
2013-04-10 04:35:00,53.9,51.0,29.94,NW,323,0.0,15.0,90,0.00,,,0.00,Wunderground v.1.15,2013-04-10 08:35:00,
2013-04-10 04:40:00,53.8,50.9,29.94,NW,323,0.0,15.0,90,0.00,,,0.00,Wunderground v.1.15,2013-04-10 08:40:00,
2013-04-10 04:45:00,53.8,50.9,29.94,NW,323,0.0,15.0,90,0.00,,,0.00,Wunderground v.1.15,2013-04-10 08:45:00,
2013-04-10 04:50:00,53.7,50.8,29.94,NW,323,0.0,15.0,90,0.00,,,0.00,Wunderground v.1.15,2013-04-10 08:50:00,
2013-04-10 04:55:00,53.5,50.6,29.95,NW,323,0.0,15.0,90,0.00,,,0.00,Wunderground v.1.15,2013-04-10 08:55:00,
2013-04-10 05:00:00,53.3,50.4,29.94,NW,323,0.0,15.0,90,0.00,,,0.00,Wunderground v.1.15,2013-04-10 09:00:00,
2013-04-10 05:05:00,53.2,50.6,29.94,NW,323,0.0,15.0,91,0.00,,,0.00,Wunderground v.1.15,2013-04-10 09:05:00,
2013-04-10 05:11:00,53.1,50.5,29.94,NW,323,0.0,15.0,91,0.00,,,0.00,Wunderground v.1.15,2013-04-10 09:11:00,
2013-04-10 05:16:00,53.2,50.9,29.94,NW,323,0.0,15.0,92,0.00,,,0.00,Wunderground v.1.15,2013-04-10 09:16:00,
2013-04-10 05:21:00,53.2,50.6,29.94,NW,323,0.0,15.0,91,0.00,,,0.00,Wunderground v.1.15,2013-04-10 09:21:00,
2013-04-10 05:26:00,53.1,50.5,29.94,NW,323,0.0,15.0,91,0.00,,,0.00,Wunderground v.1.15,2013-04-10 09:26:00,
2013-04-10 05:31:00,53.0,50.4,29.94,NW,323,0.0,15.0,91,0.00,,,0.00,Wunderground v.1.15,2013-04-10 09:31:00,
2013-04-10 05:36:00,53.0,50.4,29.94,NW,323,0.0,15.0,91,0.00,,,0.00,Wunderground v.1.15,2013-04-10 09:36:00,
2013-04-10 05:41:00,52.8,50.2,29.94,NW,323,0.0,15.0,91,0.00,,,0.00,Wunderground v.1.15,2013-04-10 09:41:00,
2013-04-10 05:46:00,52.7,50.1,29.94,NW,323,0.0,15.0,91,0.00,,,0.00,Wunderground v.1.15,2013-04-10 09:46:00,
2013-04-10 05:51:00,52.7,50.1,29.95,NW,323,0.0,15.0,91,0.00,,,0.00,Wunderground v.1.15,2013-04-10 09:51:00,
2013-04-10 06:00:00,52.6,50.3,29.95,NW,323,0.0,15.0,92,0.00,,,0.00,Wunderground v.1.15,2013-04-10 10:00:00,
2013-04-10 06:05:00,52.7,50.7,29.94,NW,323,0.0,15.0,93,0.00,,,0.00,Wunderground v.1.15,2013-04-10 10:05:00,
2013-04-10 06:10:00,52.8,50.5,29.94,NW,323,0.0,15.0,92,0.00,,,0.00,Wunderground v.1.15,2013-04-10 10:10:00,
2013-04-10 06:16:00,52.9,50.9,29.94,NW,323,0.0,15.0,93,0.00,,,0.00,Wunderground v.1.15,2013-04-10 10:16:00,
2013-04-10 06:21:00,52.9,50.9,29.94,NW,323,0.0,15.0,93,0.00,,,0.00,Wunderground v.1.15,2013-04-10 10:21:00,
2013-04-10 06:26:00,53.0,51.0,29.94,NW,323,0.0,15.0,93,0.00,,,0.00,Wunderground v.1.15,2013-04-10 10:26:00,
2013-04-10 06:31:00,53.0,51.0,29.94,NW,323,0.0,15.0,93,0.00,,,0.00,Wunderground v.1.15,2013-04-10 10:31:00,
2013-04-10 06:36:00,53.0,50.7,29.94,NW,323,0.0,15.0,92,0.00,,,0.00,Wunderground v.1.15,2013-04-10 10:36:00,
2013-04-10 06:41:00,52.9,50.6,29.94,NW,323,0.0,15.0,92,0.00,,,0.00,Wunderground v.1.15,2013-04-10 10:41:00,
2013-04-10 06:51:00,52.5,50.2,29.94,NW,323,0.0,15.0,92,0.00,,,0.00,Wunderground v.1.15,2013-04-10 10:51:00,
2013-04-10 06:56:00,52.4,50.1,29.94,NW,323,0.0,15.0,92,0.00,,,0.00,Wunderground v.1.15,2013-04-10 10:56:00,
2013-04-10 07:01:00,52.4,50.4,29.95,NW,323,0.0,15.0,93,0.00,,,0.00,Wunderground v.1.15,2013-04-10 11:01:00,
2013-04-10 07:06:00,52.5,50.5,29.96,NW,323,0.0,15.0,93,0.00,,,0.00,Wunderground v.1.15,2013-04-10 11:06:00,
2013-04-10 07:11:00,52.6,50.6,29.96,NW,323,0.0,15.0,93,0.00,,,0.00,Wunderground v.1.15,2013-04-10 11:11:00,
2013-04-10 07:21:00,53.1,51.1,29.96,NW,323,0.0,15.0,93,0.00,,,0.00,Wunderground v.1.15,2013-04-10 11:21:00,
2013-04-10 07:26:00,53.2,51.2,29.96,NW,323,0.0,15.0,93,0.00,,,0.00,Wunderground v.1.15,2013-04-10 11:26:00,
2013-04-10 07:31:00,53.3,51.3,29.96,NW,323,0.0,15.0,93,0.00,,,0.00,Wunderground v.1.15,2013-04-10 11:31:00,
2013-04-10 07:36:00,53.5,51.5,29.97,NW,323,0.0,15.0,93,0.00,,,0.00,Wunderground v.1.15,2013-04-10 11:36:00,
2013-04-10 07:41:00,53.5,51.5,29.96,NW,323,0.0,15.0,93,0.00,,,0.00,Wunderground v.1.15,2013-04-10 11:41:00,
2013-04-10 07:46:00,53.5,51.5,29.97,NW,323,0.0,15.0,93,0.00,,,0.00,Wunderground v.1.15,2013-04-10 11:46:00,
2013-04-10 07:56:00,53.8,51.8,29.97,NW,323,0.0,15.0,93,0.00,,,0.00,Wunderground v.1.15,2013-04-10 11:56:00,
2013-04-10 08:01:00,53.9,51.9,29.97,NW,323,0.0,0.0,93,0.00,,,0.00,Wunderground v.1.15,2013-04-10 12:01:00,
2013-04-10 08:11:00,54.5,52.5,29.97,NW,323,0.0,0.0,93,0.00,,,0.00,Wunderground v.1.15,2013-04-10 12:11:00,
2013-04-10 08:16:00,54.8,52.8,29.97,NW,323,0.0,0.0,93,0.00,,,0.00,Wunderground v.1.15,2013-04-10 12:16:00,
2013-04-10 08:21:00,55.2,53.2,29.97,NW,323,0.0,0.0,93,0.00,,,0.00,Wunderground v.1.15,2013-04-10 12:21:00,
2013-04-10 08:31:00,56.4,54.4,29.97,NW,323,0.0,0.0,93,0.00,,,0.00,Wunderground v.1.15,2013-04-10 12:31:00,
2013-04-10 08:36:00,57.0,54.7,29.97,NW,323,0.0,0.0,92,0.00,,,0.00,Wunderground v.1.15,2013-04-10 12:36:00,
2013-04-10 08:41:00,57.7,55.1,29.97,NW,323,0.0,0.0,91,0.00,,,0.00,Wunderground v.1.15,2013-04-10 12:41:00,
2013-04-10 08:46:00,58.5,55.6,29.97,NW,323,0.0,0.0,90,0.00,,,0.00,Wunderground v.1.15,2013-04-10 12:46:00,
2013-04-10 08:51:00,59.3,55.7,29.97,NW,323,0.0,0.0,88,0.00,,,0.00,Wunderground v.1.15,2013-04-10 12:51:00,
2013-04-10 09:01:00,60.0,55.5,29.96,NW,323,0.0,0.0,85,0.00,,,0.00,Wunderground v.1.15,2013-04-10 13:01:00,
2013-04-10 09:10:00,61.2,56.3,29.97,NW,323,0.0,0.0,84,0.00,,,0.00,Wunderground v.1.15,2013-04-10 13:10:00,
2013-04-10 09:15:00,62.0,56.8,29.97,NW,323,0.0,0.0,83,0.00,,,0.00,Wunderground v.1.15,2013-04-10 13:15:00,
2013-04-10 09:20:00,62.7,57.1,29.97,NW,323,0.0,0.0,82,0.00,,,0.00,Wunderground v.1.15,2013-04-10 13:20:00,
2013-04-10 09:25:00,63.7,57.4,29.97,NW,323,0.0,0.0,80,0.00,,,0.00,Wunderground v.1.15,2013-04-10 13:25:00,
2013-04-10 09:30:00,64.7,57.3,29.97,NW,323,0.0,0.0,77,0.00,,,0.00,Wunderground v.1.15,2013-04-10 13:30:00,
2013-04-10 09:36:00,65.7,57.9,29.97,NW,323,0.0,0.0,76,0.00,,,0.00,Wunderground v.1.15,2013-04-10 13:36:00,
2013-04-10 09:41:00,66.6,58.1,29.96,NW,323,0.0,0.0,74,0.00,,,0.00,Wunderground v.1.15,2013-04-10 13:41:00,
2013-04-10 09:46:00,67.3,58.0,29.97,NW,323,0.0,0.0,72,0.00,,,0.00,Wunderground v.1.15,2013-04-10 13:46:00,
2013-04-10 09:51:00,68.0,58.2,29.97,North,355,1.0,7.0,71,0.00,,,0.00,Wunderground v.1.15,2013-04-10 13:51:00,
2013-04-10 09:56:00,68.5,58.3,29.97,North,349,2.0,7.0,70,0.00,,,0.00,Wunderground v.1.15,2013-04-10 13:56:00,
2013-04-10 10:01:00,69.1,58.5,29.97,North,349,1.0,1.0,69,0.00,,,0.00,Wunderground v.1.15,2013-04-10 14:01:00,
2013-04-10 10:10:00,70.1,58.2,29.97,NNW,346,0.0,0.0,66,0.00,,,0.00,Wunderground v.1.15,2013-04-10 14:10:00,
2013-04-10 10:15:00,70.6,58.7,29.97,NNW,346,0.0,0.0,66,0.00,,,0.00,Wunderground v.1.15,2013-04-10 14:15:00,
2013-04-10 10:21:00,71.4,58.6,29.97,NNW,346,0.0,0.0,64,0.00,,,0.00,Wunderground v.1.15,2013-04-10 14:21:00,
2013-04-10 10:26:00,72.1,59.2,29.97,NNW,343,0.0,0.0,64,0.00,,,0.00,Wunderground v.1.15,2013-04-10 14:26:00,
2013-04-10 10:31:00,72.6,58.4,29.97,SW,222,0.0,0.0,61,0.00,,,0.00,Wunderground v.1.15,2013-04-10 14:31:00,
2013-04-10 10:36:00,72.9,58.2,29.97,WNW,283,0.0,0.0,60,0.00,,,0.00,Wunderground v.1.15,2013-04-10 14:36:00,
2013-04-10 10:46:00,73.7,58.9,29.97,WSW,245,0.0,0.0,60,0.00,,,0.00,Wunderground v.1.15,2013-04-10 14:46:00,
2013-04-10 10:55:00,74.7,58.5,29.97,West,260,0.0,0.0,57,0.00,,,0.00,Wunderground v.1.15,2013-04-10 14:55:00,
2013-04-10 11:01:00,74.9,58.6,29.97,WNW,300,0.0,0.0,57,0.00,,,0.00,Wunderground v.1.15,2013-04-10 15:01:00,
2013-04-10 11:10:00,75.4,59.6,29.96,WNW,283,0.0,0.0,58,0.00,,,0.00,Wunderground v.1.15,2013-04-10 15:10:00,
2013-04-10 11:16:00,75.5,59.7,29.96,SW,216,0.0,0.0,58,0.00,,,0.00,Wunderground v.1.15,2013-04-10 15:16:00,
2013-04-10 11:21:00,76.0,59.7,29.97,WNW,302,0.0,0.0,57,0.00,,,0.00,Wunderground v.1.15,2013-04-10 15:21:00,
2013-04-10 11:26:00,76.3,58.9,29.96,SW,231,0.0,0.0,55,0.00,,,0.00,Wunderground v.1.15,2013-04-10 15:26:00,
2013-04-10 11:31:00,76.9,59.0,29.96,WSW,240,0.0,0.0,54,0.00,,,0.00,Wunderground v.1.15,2013-04-10 15:31:00,
2013-04-10 11:45:00,77.6,60.7,29.96,SSW,211,0.0,0.0,56,0.00,,,0.00,Wunderground v.1.15,2013-04-10 15:45:00,
2013-04-10 11:50:00,78.1,59.6,29.96,SW,216,0.0,0.0,53,0.00,,,0.00,Wunderground v.1.15,2013-04-10 15:50:00,
2013-04-10 11:55:00,77.9,59.9,29.96,WSW,238,0.0,0.0,54,0.00,,,0.00,Wunderground v.1.15,2013-04-10 15:55:00,
2013-04-10 12:01:00,78.2,60.2,29.96,SSW,211,0.0,0.0,54,0.00,,,0.00,Wunderground v.1.15,2013-04-10 16:01:00,
2013-04-10 12:11:00,79.4,59.7,29.96,WNW,290,0.0,0.0,51,0.00,,,0.00,Wunderground v.1.15,2013-04-10 16:11:00,
2013-04-10 12:20:00,80.1,59.8,29.96,West,273,0.0,0.0,50,0.00,,,0.00,Wunderground v.1.15,2013-04-10 16:20:00,
2013-04-10 12:26:00,80.8,59.3,29.95,West,265,0.0,0.0,48,0.00,,,0.00,Wunderground v.1.15,2013-04-10 16:26:00,
2013-04-10 12:35:00,81.2,59.1,29.95,WSW,244,1.0,1.0,47,0.00,,,0.00,Wunderground v.1.15,2013-04-10 16:35:00,
2013-04-10 12:40:00,81.4,58.6,29.95,WNW,284,1.0,1.0,46,0.00,,,0.00,Wunderground v.1.15,2013-04-10 16:40:00,
2013-04-10 12:46:00,81.8,59.0,29.95,West,271,1.0,1.0,46,0.00,,,0.00,Wunderground v.1.15,2013-04-10 16:46:00,
2013-04-10 12:51:00,81.9,58.5,29.94,SSW,194,1.0,9.0,45,0.00,,,0.00,Wunderground v.1.15,2013-04-10 16:51:00,
2013-04-10 12:56:00,81.7,57.0,29.94,West,259,3.0,9.0,43,0.00,,,0.00,Wunderground v.1.15,2013-04-10 16:56:00,
2013-04-10 13:01:00,81.4,58.0,29.94,WSW,248,5.0,5.0,45,0.00,,,0.00,Wunderground v.1.15,2013-04-10 17:01:00,
2013-04-10 13:10:00,82.2,58.1,29.94,WSW,252,2.0,2.0,44,0.00,,,0.00,Wunderground v.1.15,2013-04-10 17:10:00,
2013-04-10 13:15:00,82.8,58.0,29.94,WNW,292,2.0,4.0,43,0.00,,,0.00,Wunderground v.1.15,2013-04-10 17:15:00,
2013-04-10 13:20:00,82.7,57.9,29.93,SSW,199,3.0,9.0,43,0.00,,,0.00,Wunderground v.1.15,2013-04-10 17:20:00,
2013-04-10 13:26:00,82.4,57.7,29.93,SSW,192,6.0,10.0,43,0.00,,,0.00,Wunderground v.1.15,2013-04-10 17:26:00,
2013-04-10 13:31:00,82.2,58.1,29.93,WSW,241,7.0,7.0,44,0.00,,,0.00,Wunderground v.1.15,2013-04-10 17:31:00,
2013-04-10 13:36:00,82.5,57.7,29.93,WNW,284,5.0,7.0,43,0.00,,,0.00,Wunderground v.1.15,2013-04-10 17:36:00,
2013-04-10 13:41:00,82.8,58.0,29.93,West,260,4.0,4.0,43,0.00,,,0.00,Wunderground v.1.15,2013-04-10 17:41:00,
2013-04-10 13:50:00,83.4,57.2,29.92,NW,325,3.0,4.0,41,0.00,,,0.00,Wunderground v.1.15,2013-04-10 17:50:00,
2013-04-10 13:55:00,84.1,58.5,29.92,NW,317,4.0,5.0,42,0.00,,,0.00,Wunderground v.1.15,2013-04-10 17:55:00,
2013-04-10 14:06:00,84.9,57.9,29.92,SW,232,3.0,6.0,40,0.00,,,0.00,Wunderground v.1.15,2013-04-10 18:06:00,
2013-04-10 14:16:00,84.9,56.5,29.91,NNW,336,4.0,5.0,38,0.00,,,0.00,Wunderground v.1.15,2013-04-10 18:16:00,
2013-04-10 14:21:00,85.0,57.3,29.91,West,268,4.0,4.0,39,0.00,,,0.00,Wunderground v.1.15,2013-04-10 18:21:00,
2013-04-10 14:30:00,84.7,59.1,29.90,SW,232,5.0,5.0,42,0.00,,,0.00,Wunderground v.1.15,2013-04-10 18:30:00,
2013-04-10 14:35:00,84.2,59.3,29.90,SSW,205,4.0,7.0,43,0.00,,,0.00,Wunderground v.1.15,2013-04-10 18:35:00,
2013-04-10 14:40:00,84.4,60.1,29.89,SSW,203,5.0,6.0,44,0.00,,,0.00,Wunderground v.1.15,2013-04-10 18:40:00,
2013-04-10 14:45:00,84.7,59.7,29.89,SSW,205,4.0,7.0,43,0.00,,,0.00,Wunderground v.1.15,2013-04-10 18:45:00,
2013-04-10 14:51:00,84.4,59.5,29.89,SW,222,4.0,4.0,43,0.00,,,0.00,Wunderground v.1.15,2013-04-10 18:51:00,
2013-04-10 14:56:00,84.7,59.1,29.89,SW,216,4.0,4.0,42,0.00,,,0.00,Wunderground v.1.15,2013-04-10 18:56:00,
2013-04-10 15:01:00,85.1,59.4,29.89,SSW,209,4.0,4.0,42,0.00,,,0.00,Wunderground v.1.15,2013-04-10 19:01:00,
2013-04-10 15:16:00,85.6,59.9,29.88,SW,215,4.0,6.0,42,0.00,,,0.00,Wunderground v.1.15,2013-04-10 19:16:00,
2013-04-10 15:26:00,86.5,58.6,29.88,SSW,213,5.0,10.0,39,0.00,,,0.00,Wunderground v.1.15,2013-04-10 19:26:00,
2013-04-10 15:31:00,87.0,58.3,29.88,North,355,4.0,13.0,38,0.00,,,0.00,Wunderground v.1.15,2013-04-10 19:31:00,
2013-04-10 15:36:00,87.1,59.1,29.87,SSW,211,4.0,13.0,39,0.00,,,0.00,Wunderground v.1.15,2013-04-10 19:36:00,
2013-04-10 15:41:00,87.0,59.0,29.87,NW,319,5.0,7.0,39,0.00,,,0.00,Wunderground v.1.15,2013-04-10 19:41:00,
2013-04-10 15:46:00,87.1,59.8,29.86,NW,318,4.0,7.0,40,0.00,,,0.00,Wunderground v.1.15,2013-04-10 19:46:00,
2013-04-10 15:55:00,87.3,58.6,29.86,WNW,284,3.0,4.0,38,0.00,,,0.00,Wunderground v.1.15,2013-04-10 19:55:00,
2013-04-10 16:01:00,87.1,58.4,29.86,SW,217,4.0,8.0,38,0.00,,,0.00,Wunderground v.1.15,2013-04-10 20:01:00,
2013-04-10 16:15:00,86.5,58.6,29.85,SW,219,5.0,6.0,39,0.00,,,0.00,Wunderground v.1.15,2013-04-10 20:15:00,
2013-04-10 16:20:00,86.4,58.5,29.85,North,10,7.0,9.0,39,0.00,,,0.00,Wunderground v.1.15,2013-04-10 20:20:00,
2013-04-10 16:25:00,86.4,58.5,29.85,SW,231,6.0,9.0,39,0.00,,,0.00,Wunderground v.1.15,2013-04-10 20:25:00,
2013-04-10 16:35:00,86.6,58.7,29.85,NW,305,5.0,5.0,39,0.00,,,0.00,Wunderground v.1.15,2013-04-10 20:35:00,
2013-04-10 16:41:00,86.2,59.0,29.84,WSW,256,4.0,4.0,40,0.00,,,0.00,Wunderground v.1.15,2013-04-10 20:41:00,
2013-04-10 16:46:00,86.2,59.0,29.84,NW,306,5.0,5.0,40,0.00,,,0.00,Wunderground v.1.15,2013-04-10 20:46:00,
2013-04-10 16:51:00,86.1,59.6,29.84,WSW,239,4.0,5.0,41,0.00,,,0.00,Wunderground v.1.15,2013-04-10 20:51:00,
2013-04-10 16:56:00,85.8,58.7,29.84,North,360,5.0,5.0,40,0.00,,,0.00,Wunderground v.1.15,2013-04-10 20:56:00,
2013-04-10 17:01:00,85.8,58.7,29.83,NW,309,5.0,6.0,40,0.00,,,0.00,Wunderground v.1.15,2013-04-10 21:01:00,
2013-04-10 17:11:00,85.6,58.5,29.83,West,260,4.0,4.0,40,0.00,,,0.00,Wunderground v.1.15,2013-04-10 21:11:00,
2013-04-10 17:16:00,85.7,58.6,29.82,SSW,204,4.0,4.0,40,0.00,,,0.00,Wunderground v.1.15,2013-04-10 21:16:00,
2013-04-10 17:21:00,86.0,59.6,29.83,NW,304,4.0,4.0,41,0.00,,,0.00,Wunderground v.1.15,2013-04-10 21:21:00,
2013-04-10 17:26:00,85.9,59.5,29.82,NNW,331,5.0,5.0,41,0.00,,,0.00,Wunderground v.1.15,2013-04-10 21:26:00,
2013-04-10 17:31:00,85.8,59.4,29.82,NNW,338,5.0,8.0,41,0.00,,,0.00,Wunderground v.1.15,2013-04-10 21:31:00,
2013-04-10 17:36:00,85.6,59.9,29.82,WNW,302,5.0,8.0,42,0.00,,,0.00,Wunderground v.1.15,2013-04-10 21:36:00,
2013-04-10 17:45:00,85.1,58.8,29.82,NW,325,5.0,8.0,41,0.00,,,0.00,Wunderground v.1.15,2013-04-10 21:45:00,
2013-04-10 17:50:00,85.0,59.3,29.82,SW,220,5.0,6.0,42,0.00,,,0.00,Wunderground v.1.15,2013-04-10 21:50:00,
2013-04-10 17:55:00,84.8,59.2,29.82,WSW,248,4.0,6.0,42,0.00,,,0.00,Wunderground v.1.15,2013-04-10 21:55:00,
2013-04-10 18:00:00,84.7,58.4,29.82,WNW,288,5.0,5.0,41,0.00,,,0.00,Wunderground v.1.15,2013-04-10 22:00:00,
2013-04-10 18:05:00,84.5,58.2,29.82,West,264,6.0,6.0,41,0.00,,,0.00,Wunderground v.1.15,2013-04-10 22:05:00,
2013-04-10 18:15:00,84.0,57.8,29.82,SW,221,4.0,13.0,41,0.00,,,0.00,Wunderground v.1.15,2013-04-10 22:15:00,
2013-04-10 18:20:00,83.9,58.3,29.82,WSW,257,2.0,2.0,42,0.00,,,0.00,Wunderground v.1.15,2013-04-10 22:20:00,
2013-04-10 18:25:00,83.9,57.7,29.82,WNW,294,1.0,13.0,41,0.00,,,0.00,Wunderground v.1.15,2013-04-10 22:25:00,
2013-04-10 18:30:00,83.8,58.3,29.82,WNW,293,4.0,13.0,42,0.00,,,0.00,Wunderground v.1.15,2013-04-10 22:30:00,
2013-04-10 18:36:00,83.5,58.0,29.81,WNW,285,6.0,13.0,42,0.00,,,0.00,Wunderground v.1.15,2013-04-10 22:36:00,
2013-04-10 18:46:00,83.0,57.5,29.81,WNW,289,5.0,13.0,42,0.00,,,0.00,Wunderground v.1.15,2013-04-10 22:46:00,
2013-04-10 18:51:00,82.8,57.4,29.81,NW,318,5.0,13.0,42,0.00,,,0.00,Wunderground v.1.15,2013-04-10 22:51:00,
2013-04-10 18:56:00,82.7,57.3,29.81,WNW,288,3.0,13.0,42,0.00,,,0.00,Wunderground v.1.15,2013-04-10 22:56:00,
2013-04-10 19:01:00,82.5,57.7,29.81,West,274,3.0,3.0,43,0.00,,,0.00,Wunderground v.1.15,2013-04-10 23:01:00,
2013-04-10 19:06:00,82.3,56.9,29.81,WNW,297,4.0,8.0,42,0.00,,,0.00,Wunderground v.1.15,2013-04-10 23:06:00,
2013-04-10 19:11:00,82.0,57.3,29.81,WSW,257,2.0,2.0,43,0.00,,,0.00,Wunderground v.1.15,2013-04-10 23:11:00,
2013-04-10 19:21:00,81.5,57.5,29.81,WSW,239,0.0,13.0,44,0.00,,,0.00,Wunderground v.1.15,2013-04-10 23:21:00,
2013-04-10 19:26:00,81.2,57.2,29.81,WNW,300,0.0,13.0,44,0.00,,,0.00,Wunderground v.1.15,2013-04-10 23:26:00,
2013-04-10 19:31:00,80.9,57.6,29.81,WSW,246,0.0,13.0,45,0.00,,,0.00,Wunderground v.1.15,2013-04-10 23:31:00,
2013-04-10 19:36:00,80.7,57.4,29.81,WNW,282,0.0,13.0,45,0.00,,,0.00,Wunderground v.1.15,2013-04-10 23:36:00,
2013-04-10 19:41:00,80.3,57.0,29.81,WNW,286,0.0,13.0,45,0.00,,,0.00,Wunderground v.1.15,2013-04-10 23:41:00,
2013-04-10 19:46:00,79.9,57.3,29.82,WNW,286,0.0,13.0,46,0.00,,,0.00,Wunderground v.1.15,2013-04-10 23:46:00,
2013-04-10 19:51:00,79.5,56.9,29.82,WNW,286,0.0,13.0,46,0.00,,,0.00,Wunderground v.1.15,2013-04-10 23:51:00,
2013-04-10 20:01:00,78.8,56.9,29.82,WNW,286,0.0,13.0,47,0.00,,,0.00,Wunderground v.1.15,2013-04-11 00:01:00,
2013-04-10 20:10:00,78.1,57.4,29.82,WNW,286,0.0,13.0,49,0.00,,,0.00,Wunderground v.1.15,2013-04-11 00:10:00,
2013-04-10 20:15:00,77.7,57.0,29.82,WNW,286,0.0,13.0,49,0.00,,,0.00,Wunderground v.1.15,2013-04-11 00:15:00,
2013-04-10 20:20:00,77.4,56.7,29.82,WNW,286,0.0,13.0,49,0.00,,,0.00,Wunderground v.1.15,2013-04-11 00:20:00,
2013-04-10 20:26:00,77.1,57.0,29.82,SSE,168,0.0,13.0,50,0.00,,,0.00,Wunderground v.1.15,2013-04-11 00:26:00,
2013-04-10 20:31:00,76.9,56.8,29.82,WNW,284,0.0,13.0,50,0.00,,,0.00,Wunderground v.1.15,2013-04-11 00:31:00,
2013-04-10 20:36:00,76.6,57.1,29.82,WNW,284,0.0,13.0,51,0.00,,,0.00,Wunderground v.1.15,2013-04-11 00:36:00,
2013-04-10 20:41:00,76.4,56.9,29.82,NW,306,0.0,13.0,51,0.00,,,0.00,Wunderground v.1.15,2013-04-11 00:41:00,
2013-04-10 20:46:00,76.2,57.3,29.82,NW,305,0.0,13.0,52,0.00,,,0.00,Wunderground v.1.15,2013-04-11 00:46:00,
2013-04-10 20:51:00,76.0,57.6,29.82,NW,305,0.0,13.0,53,0.00,,,0.00,Wunderground v.1.15,2013-04-11 00:51:00,
2013-04-10 21:01:00,75.5,57.2,29.81,NW,305,0.0,13.0,53,0.00,,,0.00,Wunderground v.1.15,2013-04-11 01:01:00,
2013-04-10 21:06:00,75.2,57.4,29.81,NW,305,0.0,13.0,54,0.00,,,0.00,Wunderground v.1.15,2013-04-11 01:06:00,
2013-04-10 21:11:00,74.9,57.1,29.82,NW,305,0.0,13.0,54,0.00,,,0.00,Wunderground v.1.15,2013-04-11 01:11:00,
2013-04-10 21:16:00,74.6,57.4,29.82,NW,305,0.0,13.0,55,0.00,,,0.00,Wunderground v.1.15,2013-04-11 01:16:00,
2013-04-10 21:21:00,74.4,57.2,29.82,NW,305,0.0,13.0,55,0.00,,,0.00,Wunderground v.1.15,2013-04-11 01:21:00,
2013-04-10 21:31:00,74.1,57.4,29.82,NW,305,0.0,13.0,56,0.00,,,0.00,Wunderground v.1.15,2013-04-11 01:31:00,
2013-04-10 21:36:00,73.9,57.2,29.82,NW,305,0.0,13.0,56,0.00,,,0.00,Wunderground v.1.15,2013-04-11 01:36:00,
2013-04-10 21:41:00,73.5,57.3,29.82,NW,305,0.0,13.0,57,0.00,,,0.00,Wunderground v.1.15,2013-04-11 01:41:00,
2013-04-10 21:46:00,73.0,56.9,29.82,NW,305,0.0,13.0,57,0.00,,,0.00,Wunderground v.1.15,2013-04-11 01:46:00,
2013-04-10 21:51:00,72.3,57.2,29.82,NW,305,0.0,13.0,59,0.00,,,0.00,Wunderground v.1.15,2013-04-11 01:51:00,
2013-04-10 21:56:00,71.5,57.3,29.82,NW,305,0.0,13.0,61,0.00,,,0.00,Wunderground v.1.15,2013-04-11 01:56:00,
2013-04-10 22:05:00,70.1,56.9,29.82,NW,305,0.0,13.0,63,0.00,,,0.00,Wunderground v.1.15,2013-04-11 02:05:00,
2013-04-10 22:10:00,69.6,56.9,29.82,NW,305,0.0,13.0,64,0.00,,,0.00,Wunderground v.1.15,2013-04-11 02:10:00,
2013-04-10 22:15:00,69.3,57.0,29.82,NW,305,0.0,13.0,65,0.00,,,0.00,Wunderground v.1.15,2013-04-11 02:15:00,
2013-04-10 22:20:00,68.8,56.6,29.83,NW,305,0.0,13.0,65,0.00,,,0.00,Wunderground v.1.15,2013-04-11 02:20:00,
2013-04-10 22:25:00,68.4,57.0,29.82,NW,305,0.0,13.0,67,0.00,,,0.00,Wunderground v.1.15,2013-04-11 02:25:00,
2013-04-10 22:35:00,67.4,56.5,29.82,NW,305,0.0,13.0,68,0.00,,,0.00,Wunderground v.1.15,2013-04-11 02:35:00,
2013-04-10 22:40:00,66.8,55.9,29.82,NW,305,0.0,13.0,68,0.00,,,0.00,Wunderground v.1.15,2013-04-11 02:40:00,
2013-04-10 22:45:00,66.0,55.9,29.82,NW,305,0.0,13.0,70,0.00,,,0.00,Wunderground v.1.15,2013-04-11 02:45:00,
2013-04-10 22:50:00,65.5,55.8,29.82,NW,305,0.0,13.0,71,0.00,,,0.00,Wunderground v.1.15,2013-04-11 02:50:00,
2013-04-10 22:55:00,65.2,55.9,29.83,NW,305,0.0,13.0,72,0.00,,,0.00,Wunderground v.1.15,2013-04-11 02:55:00,
2013-04-10 23:00:00,64.9,56.0,29.82,NW,305,0.0,13.0,73,0.00,,,0.00,Wunderground v.1.15,2013-04-11 03:00:00,
2013-04-10 23:10:00,64.3,55.8,29.82,NW,305,0.0,13.0,74,0.00,,,0.00,Wunderground v.1.15,2013-04-11 03:10:00,
2013-04-10 23:15:00,64.1,55.6,29.82,NW,305,0.0,13.0,74,0.00,,,0.00,Wunderground v.1.15,2013-04-11 03:15:00,
2013-04-10 23:20:00,63.8,55.7,29.82,NW,305,0.0,13.0,75,0.00,,,0.00,Wunderground v.1.15,2013-04-11 03:20:00,
2013-04-10 23:25:00,63.4,55.3,29.82,NW,305,0.0,13.0,75,0.00,,,0.00,Wunderground v.1.15,2013-04-11 03:25:00,
2013-04-10 23:30:00,63.1,55.4,29.82,NW,305,0.0,13.0,76,0.00,,,0.00,Wunderground v.1.15,2013-04-11 03:30:00,
2013-04-10 23:40:00,62.7,55.7,29.82,NW,305,0.0,13.0,78,0.00,,,0.00,Wunderground v.1.15,2013-04-11 03:40:00,
2013-04-10 23:45:00,62.5,55.5,29.82,NW,305,0.0,13.0,78,0.00,,,0.00,Wunderground v.1.15,2013-04-11 03:45:00,
2013-04-10 23:50:00,62.3,55.4,29.81,NW,305,0.0,13.0,78,0.00,,,0.00,Wunderground v.1.15,2013-04-11 03:50:00,
2013-04-10 23:55:00,62.0,55.1,29.82,NW,305,0.0,13.0,78,0.00,,,0.00,Wunderground v.1.15,2013-04-11 03:55:00,